カタログに戻る

SL-8 R/B

運用中LEO
NORAD 14179·ROCKET BODY·🇷🇺 Russia

打ち上げ Jul 6, 1983 から Plesetsk Cosmodrome

Loading…

次のパス (今後24時間)

TLE

最新Source: Space-Track

元期: Sep 14, 2026, 09:28 UTC

1 14179U 83069J   26257.39488966  .00000042  00000-0  50288-3 0  9995
2 14179  74.0225  45.9258 0131011 300.6020  85.6684 12.26127621933221

AllMySatでSL-8 R/Bをリアルタイム追跡

Download on the App Store